Weather History for KIEN - March, 2013

Change the Weather History Date:

Friday, March 15, 2013

  Actual Average Record
Temperature  
Mean Temperature 51 °F 36 °F  
Max Temperature 71 °F 50 °F 82 °F (2015)
Min Temperature 30 °F 22 °F 12 °F (2001)
Degree Days  
Heating Degree Days 14 29  
Month to date heating degree days 405 472  
Since 1 July heating degree days 5506 5822  
Cooling Degree Days 0 0  
Month to date cooling degree days 0 0  
Year to date cooling degree days 0 0  
Growing Degree Days 1 (Base 50)    
Moisture  
Dew Point 27 °F    
Average Humidity 47    
Maximum Humidity 78    
Minimum Humidity 16    
Precipitation  
Precipitation 0.00 in 0.02 in 0.13 in (2001)
Month to date precipitation 0.05 0.32  
Year to date precipitation 0.99 1.11  
Sea Level Pressure  
Sea Level Pressure 29.87 in    
Wind  
Wind Speed 7 mph (NNE)    
Max Wind Speed 22 mph    
Max Gust Speed 29 mph    
Visibility 10 miles    
Events      
T = Trace of Precipitation, MM = Missing Value Source: NWS Daily Summary

Daily Weather History Graph

Daily Weather History Graph

Search for Another Location

Airport or City:

Trip Planner

Search our weather history database for the weather conditions in past years. The results will help you decide how hot, cold, wet, or windy it might be!

Date:

Astronomy

Mar. 15, 2013 Rise Set
Actual Time 7:01 AM MDT 6:56 PM MDT
Civil Twilight 6:33 AM MDT 7:25 PM MDT
Nautical Twilight 6:00 AM MDT 7:58 PM MDT
Astronomical Twilight 5:26 AM MDT 8:31 PM MDT
Moon 8:46 AM MDT (3/15) 11:20 PM MDT (3/15)
Length of Visible Light 12h 51m
Length of Day
11h 55m
Waxing Crescent, 16% of the Moon is Illuminated
Mar 15
Waxing Crescent
Mar 19
First Quarter
Mar 27
Full
Apr 2
Last Quarter
Apr 10
New

Hourly Weather History & Observations

Time (MDT) Temp. Windchill Dew Point Humidity Pressure Visibility Wind Dir Wind Speed Gust Speed Precip Events Conditions
12:52 AM 37.9 °F 34.4 °F 28.9 °F 70% 29.92 in 10.0 mi ENE 4.6 mph - N/A   Clear
1:52 AM 37.0 °F - 28.0 °F 70% 29.92 in 10.0 mi Calm Calm - N/A   Clear
2:52 AM 34.0 °F 31.0 °F 27.0 °F 75% 29.91 in 10.0 mi East 3.5 mph - N/A   Clear
3:52 AM 34.0 °F - 27.0 °F 75% 29.88 in 10.0 mi Calm Calm - N/A   Clear
4:52 AM 33.1 °F - 27.0 °F 78% 29.87 in 10.0 mi Calm Calm - N/A   Clear
5:52 AM 33.1 °F 27.7 °F 27.0 °F 78% 29.86 in 10.0 mi ENE 5.8 mph - N/A   Clear
6:52 AM 32.0 °F - 26.1 °F 79% 29.87 in 10.0 mi Calm Calm - N/A   Clear
7:52 AM 33.1 °F - 27.0 °F 78% 29.87 in 10.0 mi Calm Calm - N/A   Clear
8:52 AM 39.9 °F - 30.9 °F 70% 29.88 in 9.0 mi Calm Calm - N/A   Clear
9:52 AM 48.9 °F - 33.1 °F 54% 29.85 in 10.0 mi Calm Calm - N/A   Clear
10:52 AM 62.1 °F - 27.0 °F 26% 29.81 in 10.0 mi West 10.4 mph - N/A   Clear
11:52 AM 66.9 °F - 27.0 °F 22% 29.81 in 10.0 mi West 10.4 mph - N/A   Clear
12:52 PM 70.0 °F - 21.9 °F 16% 29.79 in 10.0 mi North 19.6 mph 28.8 mph N/A   Clear
1:52 PM 68.0 °F - 25.0 °F 20% 29.80 in 10.0 mi North 18.4 mph 26.5 mph N/A   Clear
2:52 PM 66.0 °F - 25.0 °F 21% 29.81 in 10.0 mi NNE 17.3 mph 21.9 mph N/A   Clear
3:52 PM 64.9 °F - 25.0 °F 22% 29.81 in 10.0 mi NNE 9.2 mph - N/A   Clear
4:52 PM 66.0 °F - 24.1 °F 20% 29.81 in 10.0 mi North 3.5 mph - N/A   Clear
5:52 PM 64.0 °F - 25.0 °F 23% 29.83 in 10.0 mi North 11.5 mph 19.6 mph N/A   Clear
6:52 PM 59.0 °F - 25.0 °F 27% 29.86 in 10.0 mi NNE 12.7 mph - N/A   Clear
7:52 PM 54.0 °F - 26.1 °F 34% 29.89 in 10.0 mi North 8.1 mph - N/A   Clear
8:52 PM 48.9 °F - 28.0 °F 44% 29.91 in 10.0 mi ENE 6.9 mph - N/A   Mostly Cloudy
9:52 PM 50.0 °F - 28.9 °F 44% 29.96 in 10.0 mi NNE 13.8 mph - N/A   Clear
10:52 PM 48.9 °F - 28.0 °F 44% 29.94 in 10.0 mi NNE 9.2 mph - N/A   Overcast
11:52 PM 46.9 °F - 28.9 °F 50% 29.96 in 10.0 mi North 9.2 mph 17.3 mph N/A   Overcast